Flag for Guadeloupe Weather past 2 weeks in Basse-Terre, Guadeloupe

Now
81 °F

Passing clouds.


Feels Like: 86 °F
Forecast: 76 / 84 °F
Wind: 7 mph from East

Location: Le Raizet - Guadeloupe

Current Time: Jul 29, 2015 at 10:42:31 PM

Latest Report: Jul 29, 2015 at 10:00 PM


Visibility: N/A

Pressure: 30.01 "Hg

Humidity: 84%

Dew point: 75 °F

Location of Basse-TerreLocation

Historic Weather in Basse-Terre — Graph

°F

Basse-Terre temperature yesterday

Maximum temperature yesterday: 88 °F (at 10:00 AM)
Minimum temperature yesterday: 75 °F (at 4:30 AM)
Average temperature yesterday: 82 °F

Past Weeks' High & Low Weather Summary

 TemperatureHumidityPressure
High90 °F (Jul 19, 12:30 PM)100% (Jul 17, 5:30 AM)30.09 "Hg (Jul 17, 5:30 AM)
Low72 °F (Jul 18, 5:00 AM)40% (Jul 19, 11:30 AM)29.95 "Hg (Jul 20, 5:00 PM)
Average82 °F74%30.02 "Hg
* Reported Jul 14 9:00 PM — Jul 29 9:30 PM, Basse-Terre, Weather by CustomWeather, © 2015

Note: Actual official high and low records may vary slightly from our data, if they occured in-between our weather recording intervals... More about our weather records

Advertising

Basse-Terre weather history for previous 24 hours

 ConditionsComfort  
Time TempWeatherWind HumidityBarometerVisibility
9:30 PM
Wed, Jul 29
81 °FPassing clouds.6 mph79%30.01 "HgN/A
9:00 PM81 °FClear.9 mph79%30.01 "HgN/A
8:30 PM82 °FPassing clouds.8 mph74%30.01 "HgN/A
8:00 PM82 °FPassing clouds.10 mph74%30.01 "HgN/A
7:30 PM82 °FClear.9 mph74%29.98 "HgN/A
7:00 PM82 °FPassing clouds.12 mph74%29.98 "HgN/A
6:30 PM82 °FPartly sunny.14 mph74%29.98 "HgN/A
6:00 PM82 °FPartly sunny.12 mph74%29.95 "HgN/A
5:30 PM84 °FPartly sunny.13 mph70%29.95 "HgN/A
5:00 PM86 °FPartly sunny.16 mph66%29.95 "HgN/A
4:30 PM86 °FPartly sunny.14 mph62%29.95 "HgN/A
4:00 PM86 °FBroken clouds.17 mph62%29.95 "HgN/A
3:30 PM86 °FPartly sunny.16 mph62%29.95 "HgN/A
3:00 PM86 °FBroken clouds.16 mph62%29.95 "HgN/A
2:30 PM86 °FBroken clouds.17 mph66%29.95 "HgN/A
2:00 PM88 °FPartly sunny.15 mph59%29.98 "HgN/A
1:30 PM88 °FPartly sunny.14 mph55%29.98 "HgN/A
1:00 PM88 °FPartly sunny.14 mph55%29.98 "HgN/A
12:30 PM90 °FBroken clouds.15 mph52%29.98 "HgN/A
12:00 PM90 °FScattered clouds.17 mph55%30.01 "HgN/A
11:30 AM88 °FPartly sunny.15 mph55%30.01 "HgN/A
11:00 AM86 °FPartly sunny.14 mph59%30.01 "HgN/A
10:30 AM88 °FCloudy.14 mph52%30.01 "HgN/A
10:00 AM88 °FMostly cloudy.13 mph49%30.01 "HgN/A
9:30 AM86 °FMostly cloudy.12 mph55%30.01 "HgN/A
9:00 AM88 °FPartly sunny.13 mph49%30.01 "HgN/A
8:30 AM86 °FPartly sunny.13 mph55%30.01 "HgN/A
8:00 AM84 °FPassing clouds.9 mph62%30.01 "HgN/A
7:30 AM82 °FClear.5 mph70%30.01 "HgN/A
7:00 AM79 °FClear.1 mph79%30.01 "HgN/A
6:30 AM77 °FScattered clouds.2 mph83%30.01 "HgN/A
6:00 AM75 °FPartly sunny.No wind89%30.01 "HgN/A
5:30 AM77 °FPassing clouds.1 mph79%29.98 "HgN/A
5:00 AM77 °FClear.2 mph83%29.98 "HgN/A
4:30 AM79 °FClear.3 mph79%29.98 "HgN/A
3:30 AM81 °FPassing clouds.7 mph74%29.98 "HgN/A
3:00 AM81 °FClear.7 mph74%29.98 "HgN/A
2:30 AM81 °FClear.9 mph74%29.98 "HgN/A
2:00 AM81 °FPassing clouds.9 mph74%29.98 "HgN/A
1:30 AM81 °FPartly cloudy.10 mph74%29.98 "HgN/A
1:00 AM81 °FPassing clouds.8 mph79%29.98 "HgN/A
12:00 AM81 °FPartly cloudy.6 mph79%30.01 "HgN/A
11:00 PM
Tue, Jul 28
81 °FPassing clouds.7 mph79%30.01 "HgN/A
10:30 PM81 °FPassing clouds.6 mph79%30.01 "HgN/A
10:00 PM81 °FClear.7 mph74%30.01 "HgN/A
Weather by CustomWeather, © 2015

See weather overviewHow to use our weather pages